[[{"header":{"parameterUnit":"m.s-1","parameterCategory":1,"la1":30.2991,"la2":30.254,"lo1":-89.0895,"lo2":-89.0444,"dy":0.0017,"dx":0.0017,"nx":28,"ny":28,"refTime":"2023-11-22T03:00:00:Z","depth":0,"parameterNumber":2,"parameterNumberName":"U-component_of_WINDS"},"data":[0,0,0,0,0,0,0,0,0,0,0,0,0,0,0,0,0,0,0,0,0,0,0,0,0,0,0,0,0,0,0,0,0,0,0,0,0,0,0,0,0,0,0,0,0,0,0,0,0,0,0,0,0,0,0,0,0,0,3.1379,3.1378,0,3.1345,3.1344,3.1344,3.1296,3.1295,3.1294,3.1293,3.1257,3.1257,3.1256,0,0,0,0,0,0,0,0,0,0,0,0,0,3.1402,3.1402,3.1379,3.1378,3.1378,3.1345,3.1344,3.1344,3.1296,3.1295,3.1294,3.1293,3.1257,3.1257,3.1256,0,0,0,0,0,0,0,0,0,0,0,0,0,3.1382,3.1401,3.1379,3.135,3.1347,3.1345,3.1344,3.1344,3.1296,3.1295,3.1294,3.1292,3.1257,3.1257,3.1256,3.1279,0,0,3.1255,3.1255,0,0,0,0,0,0,0,0,3.1383,3.1381,3.1355,3.1352,3.1349,3.1323,3.1339,3.1322,3.1296,3.1315,3.1293,3.1292,3.128,3.1277,3.1274,3.1277,3.1276,3.1255,3.1255,3.1255,3.1255,0,0,0,0,0,0,0,3.1385,3.1382,3.1365,3.1354,3.1351,3.1339,3.1335,3.1336,3.1305,3.1314,3.131,3.1307,3.1278,3.1274,3.1273,3.1275,3.1255,3.1255,3.1255,3.1255,3.1297,3.1298,0,0,0,0,0,0,3.139,3.1384,3.1366,3.1364,3.1363,3.1339,3.1335,3.1333,3.1305,3.1299,3.1308,3.1305,3.1275,3.1273,3.1271,3.1296,3.1255,3.1255,3.1254,3.1295,3.1297,3.1298,0,0,0,0,0,0,3.1391,3.1389,3.1368,3.1373,3.1369,3.134,3.1338,3.1333,3.1329,3.13,3.1295,3.131,3.1274,3.1271,3.1278,3.1294,3.1255,3.1254,3.1294,3.1296,3.1298,3.1346,0,0,0,0,0,0,3.1392,3.139,3.1398,3.1374,3.1369,3.1375,3.1339,3.1333,3.1329,3.1324,3.1301,3.1295,3.1273,3.1278,3.1277,3.1293,3.1254,3.1292,3.1295,3.1297,3.1343,3.1349,3.1355,0,0,0,0,0,3.1393,3.1412,3.1399,3.1397,3.1379,3.1376,3.1373,3.1348,3.133,3.1338,3.132,3.1296,3.1293,3.128,3.1278,3.1294,3.1291,3.1294,3.1297,3.134,3.1348,3.1355,0,0,0,0,0,0,3.1438,3.1409,3.1393,3.1405,3.1394,3.1368,3.1377,3.1357,3.135,3.1346,3.1314,3.1309,3.1319,3.1307,3.1293,3.1315,3.1288,3.1291,3.1322,3.1329,3.1335,3.1337,3.1254,0,0,0,0,0,3.145,3.145,3.1424,3.1438,3.1433,3.1406,3.1404,3.1386,3.1372,3.1366,3.1349,3.1336,3.1332,3.133,3.1325,3.1342,3.1336,3.1352,3.1358,3.1363,3.1365,3.1374,3.138,3.1308,3.1308,3.1308,0,0,3.1474,3.1457,3.1459,3.1446,3.1435,3.1436,3.1402,3.1404,3.1405,3.1366,3.1371,3.1359,3.1342,3.1354,3.1358,3.1344,3.1384,3.1367,3.1371,3.137,3.1377,3.1384,3.139,3.131,3.131,3.1309,0,0,3.1517,3.1505,3.1515,3.1505,3.1489,3.1472,3.1474,3.1452,3.1442,3.1447,3.1419,3.1419,3.1413,3.1403,3.1397,3.1439,3.1417,3.1438,3.147,3.1478,3.1484,3.1489,3.1503,3.1509,3.1441,3.1441,3.1441,0,3.1548,3.1548,3.1522,3.1527,3.1522,3.1489,3.1499,3.1491,3.1474,3.1471,3.1456,3.1449,3.1436,3.1445,3.1455,3.1452,3.1454,3.144,3.1485,3.149,3.1494,3.1508,3.1513,3.1444,3.1444,3.1443,3.1443,0,3.1587,3.1588,3.1598,3.1584,3.158,3.1587,3.1563,3.1563,3.1545,3.153,3.1535,3.1519,3.151,3.1512,3.1494,3.1519,3.1511,3.1491,3.1464,3.1504,3.1516,3.1521,3.1448,3.1447,3.1446,3.1445,0,0,3.1656,3.1628,3.1632,3.1626,3.1607,3.1607,3.1614,3.1606,3.1606,3.1597,3.1601,3.1598,3.158,3.1574,3.1555,3.1563,3.1598,3.1542,3.1541,3.1553,3.1624,3.1638,3.1644,3.1584,3.1584,3.1585,3.1625,0,3.1694,3.1703,3.1681,3.1696,3.1696,3.1666,3.1672,3.1661,3.1647,3.1646,3.1631,3.1629,3.1606,3.1602,3.1609,3.1592,3.1611,3.1589,3.1587,3.1587,3.159,3.165,3.1665,3.1703,3.1629,3.163,3.1631,0,3.174,3.1734,3.1748,3.173,3.1729,3.1735,3.1727,3.1726,3.1714,3.1703,3.1697,3.1676,3.1681,3.1657,3.1664,3.1649,3.1647,3.1639,3.164,3.1637,3.161,3.1649,3.1714,3.172,3.1638,3.1638,3.1637,0,3.1788,3.1783,3.1791,3.1787,3.1766,3.177,3.1762,3.1748,3.1745,3.1739,3.1737,3.1731,3.1727,3.1723,3.1701,3.1685,3.171,3.1684,3.1701,3.1702,3.1706,3.1706,3.1771,3.1707,3.1707,3.1707,3.1707,0,3.1833,3.1843,3.1813,3.1818,3.1828,3.1804,3.1815,3.1803,3.1792,3.1794,3.1769,3.1771,3.1743,3.1743,3.1726,3.1734,3.1733,3.1724,3.1719,3.1726,3.1727,3.1723,3.1719,3.1709,3.1708,3.1708,3.1708,0,3.1887,3.1867,3.1874,3.1855,3.185,3.1859,3.1841,3.1845,3.1831,3.1835,3.1834,3.1811,3.181,3.1788,3.1782,3.1771,3.1785,3.1776,3.179,3.1786,3.1805,3.1803,3.1868,3.1876,3.1809,3.1809,3.181,0,3.1916,3.1923,3.1905,3.1905,3.1897,3.1898,3.1895,3.1872,3.1871,3.1858,3.1864,3.1861,3.1856,3.1856,3.1839,3.1834,3.1824,3.1847,3.1823,3.1829,3.1823,3.1823,3.1823,3.1852,3.1853,3.1853,3.1854,0,3.197,3.196,3.1958,3.1953,3.1951,3.1945,3.1938,3.194,3.1914,3.1914,3.1913,3.191,3.1905,3.1902,3.1895,3.1885,3.1866,3.1862,3.1866,3.1872,3.1879,3.1875,3.1802,3.186,3.186,3.1859,3.1859,3.1859,3.2011,3.2017,3.2005,3.2003,3.1996,3.1991,3.1994,3.1981,3.1979,3.1973,3.196,3.1961,3.195,3.1938,3.1931,3.1932,3.1919,3.1925,3.1926,3.1927,3.1931,3.1881,3.193,3.193,3.193,3.193,3.193,0,3.2063,3.2054,3.2054,3.2045,3.2044,3.2027,3.2019,3.202,3.2021,3.2013,3.201,3.2009,3.2007,3.199,3.1986,3.199,3.1981,3.1989,3.1988,3.1986,3.1942,3.1939,3.1997,3.1997,3.1997,3.1997,3.1997,3.1997,3.209,3.2098,3.2087,3.2092,3.2083,3.2084,3.2081,3.2076,3.2069,3.207,3.2068,3.2058,3.2046,3.2042,3.2039,3.2034,3.2034,3.2045,3.2037,3.1996,3.1989,3.1983,3.198,3.2046,3.2046,3.2081,3.2082,3.2082]},{"header":{"parameterUnit":"m.s-1","parameterCategory":1,"la1":30.2991,"la2":30.254,"lo1":-89.0895,"lo2":-89.0444,"dy":0.0017,"dx":0.0017,"nx":28,"ny":28,"refTime":"2023-11-22T03:00:00:Z","depth":0,"parameterNumber":3,"parameterNumberName":"V-component_of_WINDS"},"data":[0,0,0,0,0,0,0,0,0,0,0,0,0,0,0,0,0,0,0,0,0,0,0,0,0,0,0,0,0,0,0,0,0,0,0,0,0,0,0,0,0,0,0,0,0,0,0,0,0,0,0,0,0,0,0,0,0,0,-5.2013,-5.2014,0,-5.2114,-5.2115,-5.2116,-5.2055,-5.2052,-5.2049,-5.2046,-5.2154,-5.2159,-5.2164,0,0,0,0,0,0,0,0,0,0,0,0,0,-5.1773,-5.1778,-5.2013,-5.2014,-5.2015,-5.2114,-5.2115,-5.2116,-5.2056,-5.2052,-5.2048,-5.2045,-5.2152,-5.2158,-5.2165,0,0,0,0,0,0,0,0,0,0,0,0,0,-5.1876,-5.1779,-5.2013,-5.1997,-5.1996,-5.2113,-5.2115,-5.2117,-5.2056,-5.2052,-5.2047,-5.2043,-5.215,-5.2158,-5.2166,-5.2305,0,0,-5.2191,-5.2195,0,0,0,0,0,0,0,0,-5.187,-5.1885,-5.1998,-5.1998,-5.1998,-5.2067,-5.207,-5.218,-5.2057,-5.2034,-5.2046,-5.2041,-5.2129,-5.2138,-5.2167,-5.231,-5.2315,-5.2192,-5.2197,-5.2201,-5.2203,0,0,0,0,0,0,0,-5.1863,-5.188,-5.2053,-5.2,-5.2,-5.1986,-5.1996,-5.209,-5.2105,-5.2035,-5.2031,-5.2044,-5.2128,-5.2159,-5.2169,-5.2317,-5.2192,-5.2199,-5.2205,-5.2208,-5.2583,-5.2587,0,0,0,0,0,0,-5.1856,-5.1875,-5.205,-5.2056,-5.1922,-5.1994,-5.2005,-5.2049,-5.2103,-5.2107,-5.2047,-5.2041,-5.2147,-5.2159,-5.2173,-5.2342,-5.2201,-5.2209,-5.2213,-5.2578,-5.2584,-5.2589,0,0,0,0,0,0,-5.1852,-5.1873,-5.2046,-5.1964,-5.1985,-5.2003,-5.2053,-5.2054,-5.2085,-5.2112,-5.2115,-5.2077,-5.2144,-5.2161,-5.2273,-5.2344,-5.2212,-5.222,-5.2572,-5.258,-5.2586,-5.2679,0,0,0,0,0,0,-5.1845,-5.1871,-5.1923,-5.1966,-5.199,-5.2143,-5.2058,-5.2059,-5.2099,-5.2091,-5.214,-5.2144,-5.2142,-5.2261,-5.2282,-5.2353,-5.2227,-5.2566,-5.2575,-5.2584,-5.267,-5.2689,-5.2705,0,0,0,0,0,-5.1837,-5.1945,-5.1926,-5.1947,-5.2054,-5.2147,-5.2161,-5.2155,-5.2105,-5.2158,-5.2177,-5.2143,-5.2333,-5.2273,-5.2296,-5.2371,-5.2561,-5.2573,-5.2583,-5.2662,-5.2685,-5.2705,0,0,0,0,0,0,-5.1911,-5.195,-5.1929,-5.2055,-5.2098,-5.2137,-5.2203,-5.2179,-5.2238,-5.2228,-5.2219,-5.2231,-5.2349,-5.2371,-5.2304,-5.2511,-5.244,-5.2456,-5.2492,-5.2514,-5.2531,-5.2524,-5.2234,0,0,0,0,0,-5.1942,-5.2012,-5.2043,-5.2151,-5.2174,-5.2185,-5.2225,-5.2217,-5.2262,-5.228,-5.2306,-5.2353,-5.2423,-5.2469,-5.2536,-5.2673,-5.2684,-5.2736,-5.2754,-5.2768,-5.2782,-5.2859,-5.2884,-5.2626,-5.2626,-5.2625,0,0,-5.2006,-5.2037,-5.2082,-5.2167,-5.2199,-5.2275,-5.2201,-5.2283,-5.2339,-5.2293,-5.2401,-5.2422,-5.2473,-5.2599,-5.2656,-5.2622,-5.2856,-5.2782,-5.2793,-5.28,-5.2873,-5.2898,-5.2919,-5.2633,-5.2632,-5.2631,0,0,-5.2163,-5.2192,-5.2286,-5.232,-5.237,-5.2378,-5.24,-5.2444,-5.2456,-5.2564,-5.2531,-5.2599,-5.272,-5.2758,-5.2794,-5.2968,-5.2941,-5.299,-5.3082,-5.3158,-5.3178,-5.3196,-5.326,-5.3283,-5.3004,-5.3004,-5.3005,0,-5.2237,-5.2347,-5.2338,-5.2423,-5.2462,-5.2424,-5.252,-5.2555,-5.2624,-5.2654,-5.2614,-5.2766,-5.2798,-5.2934,-5.2976,-5.3006,-5.3033,-5.2984,-5.3175,-5.3193,-5.321,-5.3272,-5.3295,-5.301,-5.301,-5.3009,-5.3008,0,-5.2438,-5.2515,-5.2585,-5.2653,-5.2701,-5.2791,-5.2797,-5.2847,-5.2835,-5.2848,-5.296,-5.2997,-5.3071,-5.3102,-5.3092,-5.3238,-5.3215,-5.3176,-5.3104,-5.3241,-5.3298,-5.3322,-5.3019,-5.3016,-5.3015,-5.3013,0,0,-5.2642,-5.2705,-5.2731,-5.2763,-5.2816,-5.2877,-5.2967,-5.3039,-5.3083,-5.3133,-5.321,-5.3315,-5.3279,-5.332,-5.3313,-5.3379,-5.3518,-5.3332,-5.3333,-5.3367,-5.3685,-5.3715,-5.3742,-5.35,-5.3504,-5.3508,-5.3681,0,-5.2803,-5.2959,-5.2954,-5.31,-5.3173,-5.3139,-5.3218,-5.3261,-5.3275,-5.3341,-5.3357,-5.3432,-5.3379,-5.3403,-5.3467,-5.3488,-5.3582,-5.3475,-5.3574,-5.3577,-5.3563,-5.3772,-5.3804,-5.3965,-5.3703,-5.3707,-5.371,0,-5.3011,-5.3068,-5.3222,-5.3267,-5.3298,-5.3368,-5.3435,-5.3498,-5.3547,-5.3553,-5.36,-5.3584,-5.3678,-5.3604,-5.3735,-5.3662,-5.3703,-5.372,-5.3726,-5.3736,-5.3652,-5.3789,-5.4016,-5.4041,-5.3745,-5.3742,-5.3739,0,-5.3148,-5.3263,-5.337,-5.3398,-5.3453,-5.3504,-5.353,-5.3574,-5.3619,-5.3678,-5.3707,-5.3777,-5.3816,-5.3871,-5.3876,-5.3821,-5.4009,-5.3935,-5.4019,-5.4019,-5.4061,-5.4058,-5.4299,-5.4085,-5.4084,-5.4084,-5.4083,0,-5.3329,-5.3424,-5.3432,-5.3499,-5.3606,-5.36,-5.3707,-5.3728,-5.3769,-5.3841,-5.3815,-5.3883,-5.3884,-5.3955,-5.3959,-5.4069,-5.4086,-5.4095,-5.4095,-5.4098,-5.4097,-5.4125,-5.4115,-5.409,-5.4089,-5.4088,-5.4087,0,-5.3499,-5.3508,-5.3623,-5.3666,-5.3679,-5.3757,-5.3795,-5.3859,-5.3872,-5.3963,-5.3984,-5.4005,-5.4087,-5.4096,-5.4192,-5.4195,-5.4328,-5.4315,-5.4311,-5.4309,-5.4394,-5.4386,-5.4662,-5.4699,-5.4459,-5.4462,-5.4463,0,-5.3614,-5.3687,-5.3738,-5.3784,-5.3812,-5.3886,-5.3931,-5.393,-5.3979,-5.4042,-5.4099,-5.4178,-5.4241,-5.4374,-5.4399,-5.4473,-5.4463,-5.4555,-5.4474,-5.4476,-5.4467,-5.4463,-5.4472,-5.4571,-5.4573,-5.4575,-5.4577,0,-5.3818,-5.382,-5.3885,-5.3954,-5.4009,-5.4062,-5.4113,-5.4152,-5.4158,-5.4215,-5.4297,-5.4346,-5.4444,-5.4524,-5.4598,-5.4626,-5.4605,-5.4602,-5.4626,-5.463,-5.4626,-5.4631,-5.4355,-5.4596,-5.4594,-5.4593,-5.4592,-5.4591,-5.3966,-5.403,-5.4077,-5.4151,-5.419,-5.4238,-5.4301,-5.4323,-5.4391,-5.447,-5.4466,-5.4558,-5.4608,-5.4704,-5.4738,-5.4812,-5.4782,-5.4816,-5.4825,-5.4834,-5.4843,-5.4613,-5.4825,-5.4825,-5.4824,-5.4824,-5.4824,0,-5.417,-5.4199,-5.4268,-5.434,-5.44,-5.4372,-5.4428,-5.448,-5.4561,-5.4609,-5.4672,-5.477,-5.4848,-5.488,-5.4957,-5.501,-5.5002,-5.5031,-5.5027,-5.5035,-5.4865,-5.4837,-5.5036,-5.5036,-5.5036,-5.5036,-5.5036,-5.5036,-5.4284,-5.4392,-5.4399,-5.4527,-5.4555,-5.4645,-5.4679,-5.4725,-5.4764,-5.4873,-5.4937,-5.4957,-5.5,-5.5081,-5.5152,-5.516,-5.519,-5.5224,-5.5227,-5.5068,-5.5046,-5.5026,-5.5,-5.523,-5.523,-5.5392,-5.5393,-5.5394]}]]